FW3884 Weather Reports


Display with metric or nautical units.
time (UTC)temp
F
wind
direction
speed
MPH
gust
MPH
rain 1hr
in
rain 24hr
in
rain mn
in
humidity
%
barometer
mb
20260510173005 77 0.0 0.0 0.00 0.00 0.00 38 1014.1
20260510171503 76 0.0 0.0 0.00 0.00 0.00 40 1014.2
20260510164610 75 0.0 0.0 0.00 0.00 0.00 46 1014.4
20260510163057 75 0.0 0.0 0.00 0.00 0.00 43 1014.4
20260510161556 74 0.0 0.0 0.00 0.00 0.00 47 1014.5
20260510160054 73 0.0 0.0 0.00 0.00 0.00 48 1014.5
20260510154556 73 0.0 0.0 0.00 0.00 0.00 49 1014.5
20260510153052 74 0.0 0.0 0.00 0.00 0.00 48 1014.9
20260510151553 72 0.0 0.0 0.00 0.00 0.00 49 1014.8
20260510150100 71 0.0 0.0 0.00 0.00 0.00 53 1014.8
20260510144604 69 0.0 0.0 0.00 0.00 0.00 54 1014.6
20260510143038 68 0.0 0.0 0.00 0.00 0.00 59 1014.7
20260510141537 66 0.0 0.0 0.00 0.00 0.00 61 1014.9
20260510140030 63 0.0 0.0 0.00 0.00 0.00 66 1015.0
20260510134527 62 0.0 0.0 0.00 0.00 0.00 67 1014.9
20260510133023 61 0.0 0.0 0.00 0.00 0.00 70 1014.9
20260510131519 60 0.0 0.0 0.00 0.00 0.00 71 1014.8
20260510130014 59 0.0 0.0 0.00 0.00 0.00 74 1014.5
20260510124511 57 0.0 0.0 0.00 0.00 0.00 75 1014.3
20260510123008 56 0.0 0.0 0.00 0.00 0.00 78 1014.2
20260510121506 55 0.0 0.0 0.00 0.00 0.00 80 1014.0
20260510120004 54 0.0 0.0 0.00 0.00 0.00 82 1013.6
20260510114502 53 0.0 0.0 0.00 0.00 0.00 84 1013.4
20260510113102 53 0.0 0.0 0.00 0.00 0.00 84 1013.1
20260510111604 52 0.0 0.0 0.00 0.00 0.00 85 1012.9
20260510110101 52 0.0 0.0 0.00 0.00 0.00 87 1012.7
20260510104605 52 0.0 0.0 0.00 0.00 0.00 88 1012.5
20260510103053 52 0.0 0.0 0.00 0.00 0.00 89 1012.4
20260510101557 52 0.0 0.0 0.00 0.00 0.00 89 1012.2
20260510100100 52 0.0 0.0 0.00 0.00 0.00 87 1012.2
20260510094557 53 0.0 0.0 0.00 0.00 0.00 87 1012.1
20260510093050 53 0.0 0.0 0.00 0.00 0.00 86 1012.0
20260510091548 53 0.0 0.0 0.00 0.00 0.00 86 1011.8
20260510090046 53 0.0 0.0 0.00 0.00 0.00 87 1011.5
20260510084545 53 0.0 0.0 0.00 0.00 0.00 87 1011.4
20260510083046 53 0.0 0.0 0.00 0.00 0.00 86 1011.4
20260510081544 53 0.0 0.0 0.00 0.00 0.00 86 1011.3
20260510080044 52 0.0 0.0 0.00 0.00 0.00 87 1011.2
20260510074546 52 0.0 0.0 0.00 0.00 0.00 87 1011.0
20260510073046 52 0.0 0.0 0.00 0.00 0.00 86 1011.1
20260510071539 53 0.0 0.0 0.00 0.00 0.00 84 1011.1
20260510070042 54 0.0 0.0 0.00 0.00 0.00 84 1011.1
20260510064535 54 0.0 0.0 0.00 0.00 0.00 82 1011.2
20260510063039 54 0.0 0.0 0.00 0.00 0.00 82 1011.3
20260510061533 54 0.0 0.0 0.00 0.00 0.00 82 1011.2
20260510060038 54 0.0 0.0 0.00 0.00 0.00 82 1011.4
20260510054533 54 0.0 0.0 0.00 0.00 0.00 82 1011.4
20260510053030 54 0.0 0.0 0.00 0.00 0.00 83 1011.5
20260510051531 54 0.0 0.0 0.00 0.00 0.00 84 1011.7
20260510050032 54 0.0 0.0 0.00 0.00 0.00 86 1011.5
20260510044525 55 0.0 0.0 0.00 0.00 0.00 89 1011.4
20260510043023 56 0.0 0.0 0.00 0.00 0.00 91 1011.4
20260510041520 56 0.0 0.0 0.00 0.00 0.00 91 1011.5
20260510040018 56 0.0 0.0 0.00 0.00 0.00 91 1011.5
20260510034517 57 0.0 0.0 0.00 0.00 0.00 89 1011.7
20260510033016 58 0.0 0.0 0.00 0.00 0.00 90 1011.6
20260510031521 58 0.0 0.0 0.00 0.00 0.00 89 1011.7
20260510030015 58 0.0 0.0 0.00 0.00 0.00 88 1011.5
20260510024518 58 0.0 0.0 0.00 0.00 0.00 88 1011.4
20260510023014 59 0.0 0.0 0.00 0.00 0.00 85 1011.3
20260510021515 59 0.0 0.0 0.00 0.00 0.00 85 1011.3
20260510020014 59 0.0 0.0 0.00 0.00 0.00 84 1011.1
20260510014514 59 0.0 0.0 0.00 0.00 0.00 75 1010.9
20260510013011 58 0.0 0.0 0.00 0.00 0.00 73 1010.6
20260510011512 59 0.0 0.0 0.00 0.00 0.00 69 1010.4
20260510010011 60 0.0 0.0 0.00 0.00 0.00 67 1010.2
20260510004515 60 0.0 0.0 0.00 0.00 0.00 66 1009.9
20260510003010 62 0.0 0.0 0.00 0.00 0.00 64 1009.4
20260510001519 63 0.0 0.0 0.00 0.00 0.00 62 1009.6
20260510000009 64 0.0 0.0 0.00 0.00 0.00 60 1009.3
20260509234513 65 0.0 0.0 0.00 0.00 0.00 59 1009.4
20260509233009 65 0.0 0.0 0.00 0.00 0.00 58 1009.4
20260509231508 66 0.0 0.0 0.00 0.00 0.00 57 1009.1
20260509230006 66 0.0 0.0 0.00 0.00 0.00 59 1008.8
20260509224506 67 0.0 0.0 0.00 0.00 0.00 64 1008.6
20260509223005 67 0.0 0.0 0.00 0.00 0.00 64 1008.6
20260509221505 68 0.0 0.0 0.00 0.00 0.00 61 1008.8
20260509220004 69 0.0 0.0 0.00 0.00 0.00 60 1008.8
20260509214504 68 0.0 0.0 0.00 0.00 0.00 62 1008.4
20260509213002 70 0.0 0.0 0.00 0.00 0.00 60 1008.4
20260509211501 68 0.0 0.0 0.00 0.00 0.00 64 1008.3
20260509210104 68 0.0 0.0 0.00 0.00 0.00 64 1008.1
20260509204605 69 0.0 0.0 0.00 0.00 0.00 62 1008.2
20260509203101 68 0.0 0.0 0.00 0.00 0.00 66 1008.2
20260509201600 66 0.0 0.0 0.00 0.00 0.00 66 1008.3
20260509200057 65 0.0 0.0 0.00 0.00 0.00 67 1008.5
20260509194558 65 0.0 0.0 0.00 0.00 0.00 69 1008.6
20260509193057 65 0.0 0.0 0.00 0.00 0.00 69 1008.6
20260509191603 66 0.0 0.0 0.00 0.00 0.00 66 1008.6
20260509190059 67 0.0 0.0 0.00 0.00 0.00 65 1008.3
20260509184552 68 0.0 0.0 0.00 0.00 0.00 64 1008.6
20260509183051 67 0.0 0.0 0.00 0.00 0.00 65 1008.8
20260509181601 70 0.0 0.0 0.00 0.00 0.00 61 1008.9
20260509180048 70 0.0 0.0 0.00 0.00 0.00 64 1008.9
20260509174554 69 0.0 0.0 0.00 0.00 0.00 64 1009.0